Swansboro, NC

9:31 PM EDT on October 21, 2017 (GMT -0400)
Bogue McAlf

Weather History for KNJM - June, 2013

Change the Weather History Date:

Thursday, June 20, 2013

  Actual Average (KNKT) Record (KNKT)
Temperature  
Mean Temperature 74 °F -  
Max Temperature 82 °F 83 °F 93 °F (2011)
Min Temperature 66 °F 66 °F 57 °F (2016)
Cooling Degree Days 9    
Growing Degree Days 24 (Base 50)    
Moisture  
Dew Point 61 °F    
Average Humidity 69    
Maximum Humidity 90    
Minimum Humidity 34    
Precipitation  
Precipitation 0.00 in - - ()
Sea Level Pressure  
Sea Level Pressure 30.17 in    
Wind  
Wind Speed 7 mph (NNE)    
Max Wind Speed 15 mph    
Max Gust Speed 21 mph    
Visibility 10 miles    
Events      
Averages and records for this station are not official NWS values.
T = Trace of Precipitation, MM = Missing Value Source: NWS Daily Summary

Daily Weather History Graph

Daily Weather History Graph

Search for Another Location

Airport or City:

Trip Planner

Search our weather history database for the weather conditions in past years. The results will help you decide how hot, cold, wet, or windy it might be!

Date:

Astronomy

Jun. 20, 2013 Rise Set
Actual Time 5:55 AM EDT 8:24 PM EDT
Civil Twilight 5:25 AM EDT 8:53 PM EDT
Nautical Twilight 4:49 AM EDT 9:30 PM EDT
Astronomical Twilight 4:08 AM EDT 10:10 PM EDT
Moon 5:28 PM EDT (6/20) 3:14 AM EDT (6/20)
Length of Visible Light 15h 28m
Length of Day
14h 29m
Waxing Gibbous, 89% of the Moon is Illuminated
Jun 20
Waxing Gibbous
Jun 23
Full
Jun 30
Last Quarter
Jul 8
New
Jul 15
First Quarter

Hourly Weather History & Observations

Time (EDT) Temp. Heat Index Dew Point Humidity Pressure Visibility Wind Dir Wind Speed Gust Speed Precip Events Conditions
12:57 AM 69.1 °F - 63.0 °F 81% 30.11 in 10.0 mi NNE 4.6 mph - N/A   Clear
1:57 AM 68.0 °F - 63.0 °F 84% 30.11 in 10.0 mi Calm Calm - N/A   Clear
2:34 AM 66.2 °F - 62.6 °F 88% 30.10 in 10.0 mi North 4.6 mph - N/A   Mostly Cloudy
2:50 AM 66.2 °F - 62.6 °F 88% 30.10 in 10.0 mi North 4.6 mph - N/A   Scattered Clouds
2:57 AM 66.9 °F - 63.0 °F 87% 30.12 in 10.0 mi North 5.8 mph - N/A   Partly Cloudy
3:57 AM 66.9 °F - 63.0 °F 87% 30.11 in 10.0 mi North 9.2 mph - N/A   Partly Cloudy
4:57 AM 66.0 °F - 63.0 °F 90% 30.12 in 10.0 mi North 8.1 mph - N/A   Clear
5:57 AM 66.0 °F - 63.0 °F 90% 30.14 in 10.0 mi North 9.2 mph - N/A   Clear
6:19 AM 66.2 °F - 62.6 °F 88% 30.13 in 10.0 mi NNE 8.1 mph - N/A   Mostly Cloudy
6:44 AM 66.2 °F - 62.6 °F 88% 30.14 in 10.0 mi North 9.2 mph - N/A   Scattered Clouds
6:57 AM 66.9 °F - 63.0 °F 87% 30.15 in 10.0 mi North 11.5 mph - N/A   Clear
7:57 AM 71.1 °F - 64.9 °F 81% 30.17 in 10.0 mi NNE 10.4 mph 18.4 mph N/A   Mostly Cloudy
8:57 AM 73.9 °F - 64.9 °F 73% 30.19 in 10.0 mi NNE 11.5 mph 19.6 mph N/A   Mostly Cloudy
9:57 AM 77.0 °F - 64.0 °F 64% 30.19 in 10.0 mi NNE 12.7 mph 19.6 mph N/A   Scattered Clouds
10:57 AM 79.0 °F - 64.0 °F 60% 30.21 in 10.0 mi NE 8.1 mph 19.6 mph N/A   Scattered Clouds
11:57 AM 81.0 °F 81.7 °F 61.0 °F 50% 30.21 in 10.0 mi ENE 15.0 mph 20.7 mph N/A   Scattered Clouds
12:57 PM 82.0 °F 82.4 °F 60.1 °F 47% 30.20 in 8.0 mi NE 12.7 mph 19.6 mph N/A   Scattered Clouds
2:57 PM 82.9 °F - 52.0 °F 34% 30.20 in 10.0 mi ENE 12.7 mph 20.7 mph N/A   Clear
3:57 PM 82.0 °F 81.4 °F 55.0 °F 39% 30.19 in 10.0 mi NE 10.4 mph 19.6 mph N/A   Clear
4:57 PM 82.0 °F 82.0 °F 57.9 °F 44% 30.19 in 10.0 mi ENE 13.8 mph 17.3 mph N/A   Clear
5:57 PM 81.0 °F 80.8 °F 55.9 °F 42% 30.18 in 10.0 mi NNE 11.5 mph - N/A   Clear
6:57 PM 79.0 °F - 51.1 °F 38% 30.19 in 10.0 mi NE 9.2 mph - N/A   Clear
7:57 PM 77.0 °F - 57.0 °F 50% 30.19 in 10.0 mi NE 4.6 mph - N/A   Partly Cloudy
8:57 PM 73.9 °F - 61.0 °F 64% 30.20 in 10.0 mi NNE 5.8 mph - N/A   Clear
9:57 PM 72.0 °F - 61.0 °F 68% 30.22 in 10.0 mi NNE 5.8 mph - N/A   Clear
10:57 PM 70.0 °F - 61.0 °F 73% 30.22 in 10.0 mi NNE 8.1 mph - N/A   Clear
11:57 PM 69.1 °F - 61.0 °F 75% 30.22 in 10.0 mi North 8.1 mph - N/A   Clear